• Em Portugal
  • Lista de países
  • Para 7 dias
  • Temperatura da água
  • Mapas de satélite
  • Mapa do tempo
  • Widgets de tempo
  • user-avatar
    Iniciar Sessão

    Previsão horária em Chişinău

    Hoje, 23 Fevereiro, Sexta-feira

    Tempo Temperatura Precipitação Vento Pressão Humidade
    00:00 -3°C° 0 mm 2 m/s 757 mmHg 79%
    01:00 -3°C° 0 mm 2 m/s 757 mmHg 79%
    02:00 -3°C° 0 mm 2 m/s 757 mmHg 79%
    03:00 -3°C° 0,1 mm 2 m/s 757 mmHg 79%
    04:00 -4°C° 0,1 mm 3 m/s 757 mmHg 80%
    05:00 -4°C° 0,1 mm 3 m/s 756 mmHg 81%
    06:00 -4°C° 0,1 mm 3 m/s 756 mmHg 80%
    07:00 -4°C° 0,1 mm 3 m/s 757 mmHg 80%
    08:00 -4°C° 0 mm 2 m/s 757 mmHg 86%
    09:00 -3°C° 0 mm 2 m/s 757 mmHg 83%
    10:00 -2°C° 0 mm 2 m/s 757 mmHg 80%
    11:00 -2°C° 0 mm 3 m/s 757 mmHg 78%
    12:00 -1°C° 0 mm 2 m/s 757 mmHg 76%
    13:00 -1°C° 0 mm 2 m/s 756 mmHg 74%
    14:00 -1°C° 0 mm 2 m/s 757 mmHg 70%
    15:00 -1°C° 0 mm 2 m/s 756 mmHg 71%
    16:00 -1°C° 0 mm 2 m/s 756 mmHg 73%
    17:00 +1°C° 0 mm 1 m/s 756 mmHg 74%
    18:00 +1°C° 0 mm 1 m/s 755 mmHg 77%
    19:00 0°C° 0 mm 1 m/s 755 mmHg 80%
    20:00 0°C° 0 mm 1 m/s 755 mmHg 83%
    21:00 0°C° 0,1 mm 1 m/s 755 mmHg 85%
    22:00 0°C° 0,1 mm 1 m/s 755 mmHg 87%
    23:00 -1°C° 0,1 mm 1 m/s 754 mmHg 89%

    Amanhã, 24 Fevereiro, Sábado

    Tempo Temperatura Precipitação Vento Pressão Humidade
    00:00 -1°C° 0,1 mm 1 m/s 754 mmHg 90%
    01:00 -1°C° 0,1 mm 1 m/s 754 mmHg 91%
    02:00 -3°C° 0,1 mm 2 m/s 753 mmHg 93%
    03:00 -3°C° 0,2 mm 2 m/s 753 mmHg 93%
    04:00 -3°C° 0,2 mm 2 m/s 752 mmHg 93%
    05:00 -3°C° 0,2 mm 2 m/s 752 mmHg 93%
    06:00 -3°C° 0,3 mm 2 m/s 752 mmHg 93%
    07:00 -2°C° 0,3 mm 2 m/s 752 mmHg 93%
    08:00 0°C° 0,3 mm 1 m/s 752 mmHg 94%
    09:00 -2°C° 0,3 mm 2 m/s 752 mmHg 92%
    10:00 -2°C° 0,3 mm 2 m/s 752 mmHg 91%
    11:00 -1°C° 0,3 mm 2 m/s 752 mmHg 90%
    12:00 -1°C° 0,2 mm 3 m/s 752 mmHg 88%
    13:00 -1°C° 0,2 mm 3 m/s 751 mmHg 87%
    14:00 -2°C° 0,2 mm 4 m/s 751 mmHg 86%
    15:00 -3°C° 0,1 mm 4 m/s 751 mmHg 85%
    16:00 -4°C° 0,1 mm 5 m/s 752 mmHg 84%
    17:00 -5°C° 0,1 mm 5 m/s 752 mmHg 83%
    18:00 -5°C° 0 mm 5 m/s 752 mmHg 84%
    19:00 -6°C° 0 mm 5 m/s 752 mmHg 85%
    20:00 -6°C° 0 mm 5 m/s 752 mmHg 86%
    21:00 -6°C° 0 mm 5 m/s 753 mmHg 87%
    22:00 -7°C° 0 mm 5 m/s 753 mmHg 89%
    23:00 -7°C° 0 mm 5 m/s 753 mmHg 90%

    Depois de amanhã, 25 Fevereiro, Domingo

    Tempo Temperatura Precipitação Vento Pressão Humidade
    00:00 -7°C° 0,1 mm 5 m/s 753 mmHg 90%
    01:00 -7°C° 0,1 mm 5 m/s 753 mmHg 89%
    02:00 -9°C° 0,1 mm 6 m/s 754 mmHg 89%
    03:00 -9°C° 0,1 mm 6 m/s 754 mmHg 89%
    04:00 -9°C° 0,1 mm 6 m/s 754 mmHg 88%
    05:00 -10°C° 0,1 mm 6 m/s 754 mmHg 88%
    06:00 -10°C° 0,1 mm 6 m/s 755 mmHg 87%
    07:00 -10°C° 0,1 mm 6 m/s 755 mmHg 87%
    08:00 -11°C° 0,1 mm 6 m/s 756 mmHg 86%
    09:00 -11°C° 0 mm 6 m/s 756 mmHg 85%
    10:00 -11°C° 0 mm 5 m/s 756 mmHg 83%
    11:00 -10°C° 0 mm 5 m/s 757 mmHg 81%
    12:00 -10°C° 0 mm 5 m/s 757 mmHg 80%
    13:00 -10°C° 0 mm 5 m/s 757 mmHg 79%
    14:00 -10°C° 0 mm 5 m/s 757 mmHg 78%
    15:00 -11°C° 0 mm 5 m/s 757 mmHg 78%
    16:00 -11°C° 0 mm 5 m/s 758 mmHg 78%
    17:00 -11°C° 0 mm 5 m/s 758 mmHg 78%
    18:00 -12°C° 0 mm 5 m/s 758 mmHg 79%
    19:00 -13°C° 0 mm 5 m/s 759 mmHg 80%
    20:00 -14°C° 0 mm 5 m/s 759 mmHg 82%
    21:00 -14°C° 0 mm 5 m/s 759 mmHg 82%
    22:00 -15°C° 0 mm 5 m/s 760 mmHg 82%
    23:00 -15°C° 0 mm 5 m/s 760 mmHg 82%

    26 Fevereiro, Segunda-feira

    Tempo Temperatura Precipitação Vento Pressão Humidade
    00:00 -17°C° 0 mm 5 m/s 760 mmHg 83%
    01:00 -16°C° 0 mm 4 m/s 760 mmHg 83%
    02:00 -16°C° 0 mm 4 m/s 760 mmHg 84%
    03:00 -17°C° 0 mm 4 m/s 760 mmHg 84%
    04:00 -17°C° 0 mm 4 m/s 760 mmHg 84%
    05:00 -17°C° 0 mm 4 m/s 760 mmHg 85%
    06:00 -17°C° 0 mm 4 m/s 760 mmHg 85%
    07:00 -17°C° 0 mm 4 m/s 760 mmHg 85%
    08:00 -18°C° 0 mm 5 m/s 760 mmHg 85%
    09:00 -17°C° 0 mm 5 m/s 760 mmHg 82%
    10:00 -15°C° 0 mm 5 m/s 760 mmHg 80%
    11:00 -14°C° 0 mm 5 m/s 760 mmHg 77%
    12:00 -14°C° 0 mm 5 m/s 760 mmHg 76%
    13:00 -13°C° 0 mm 5 m/s 760 mmHg 74%
    14:00 -12°C° 0 mm 5 m/s 759 mmHg 73%
    15:00 -13°C° 0 mm 5 m/s 759 mmHg 74%
    16:00 -13°C° 0 mm 5 m/s 759 mmHg 76%
    17:00 -13°C° 0 mm 5 m/s 759 mmHg 77%
    18:00 -13°C° 0 mm 5 m/s 759 mmHg 79%
    19:00 -14°C° 0 mm 5 m/s 759 mmHg 80%
    20:00 -14°C° 0 mm 5 m/s 759 mmHg 82%
    21:00 -14°C° 0 mm 5 m/s 758 mmHg 83%
    22:00 -14°C° 0 mm 5 m/s 758 mmHg 83%
    23:00 -14°C° 0 mm 5 m/s 758 mmHg 84%

    27 Fevereiro, Terça-feira

    Tempo Temperatura Precipitação Vento Pressão Humidade
    00:00 -14°C° 0 mm 5 m/s 757 mmHg 84%
    01:00 -14°C° 0 mm 5 m/s 757 mmHg 84%
    02:00 -14°C° 0 mm 4 m/s 757 mmHg 85%
    03:00 -14°C° 0,1 mm 5 m/s 756 mmHg 85%
    04:00 -14°C° 0,1 mm 5 m/s 756 mmHg 86%
    05:00 -14°C° 0,1 mm 5 m/s 756 mmHg 86%
    06:00 -14°C° 0,2 mm 5 m/s 756 mmHg 86%
    07:00 -14°C° 0,2 mm 5 m/s 755 mmHg 87%
    08:00 -14°C° 0,2 mm 5 m/s 755 mmHg 87%
    09:00 -13°C° 0,3 mm 5 m/s 755 mmHg 87%
    10:00 -12°C° 0,3 mm 5 m/s 755 mmHg 86%
    11:00 -12°C° 0,3 mm 5 m/s 755 mmHg 86%
    12:00 -11°C° 0,1 mm 5 m/s 754 mmHg 85%
    13:00 -10°C° 0,1 mm 5 m/s 754 mmHg 83%
    14:00 -10°C° 0,1 mm 5 m/s 754 mmHg 82%
    15:00 -10°C° 0 mm 5 m/s 754 mmHg 82%
    16:00 -10°C° 0 mm 5 m/s 754 mmHg 82%
    17:00 -10°C° 0 mm 5 m/s 753 mmHg 82%
    18:00 -9°C° 0,1 mm 4 m/s 754 mmHg 83%
    19:00 -9°C° 0,1 mm 4 m/s 754 mmHg 84%
    20:00 -9°C° 0,1 mm 4 m/s 754 mmHg 86%
    21:00 -9°C° 0,2 mm 4 m/s 754 mmHg 87%
    22:00 -9°C° 0,2 mm 4 m/s 754 mmHg 89%
    23:00 -9°C° 0,2 mm 4 m/s 754 mmHg 90%

    28 Fevereiro, Quarta-feira

    Tempo Temperatura Precipitação Vento Pressão Humidade
    00:00 -8°C° 0,1 mm 3 m/s 754 mmHg 91%
    01:00 -9°C° 0,1 mm 3 m/s 754 mmHg 92%
    02:00 -9°C° 0,1 mm 3 m/s 754 mmHg 93%
    03:00 -9°C° 0 mm 3 m/s 754 mmHg 94%
    04:00 -8°C° 0 mm 3 m/s 754 mmHg 94%
    05:00 -9°C° 0 mm 4 m/s 753 mmHg 94%
    06:00 -9°C° 0,1 mm 4 m/s 753 mmHg 94%
    07:00 -9°C° 0,1 mm 4 m/s 753 mmHg 94%
    08:00 -9°C° 0,1 mm 4 m/s 753 mmHg 93%
    09:00 -8°C° 0,6 mm 4 m/s 753 mmHg 93%
    10:00 -7°C° 0,6 mm 4 m/s 753 mmHg 93%
    11:00 -5°C° 0,6 mm 4 m/s 753 mmHg 93%
    12:00 -5°C° 1,1 mm 4 m/s 753 mmHg 94%
    13:00 -5°C° 1,1 mm 4 m/s 753 mmHg 94%
    14:00 -4°C° 1,1 mm 4 m/s 753 mmHg 95%
    15:00 -4°C° 0,5 mm 4 m/s 752 mmHg 95%
    16:00 -4°C° 0,5 mm 4 m/s 752 mmHg 95%
    17:00 -4°C° 0,5 mm 4 m/s 752 mmHg 95%
    18:00 -4°C° 0,3 mm 4 m/s 752 mmHg 95%
    19:00 -4°C° 0,3 mm 3 m/s 752 mmHg 96%
    20:00 -4°C° 0,3 mm 3 m/s 753 mmHg 96%
    21:00 -4°C° 0,2 mm 3 m/s 753 mmHg 96%
    22:00 -5°C° 0,2 mm 3 m/s 753 mmHg 96%
    23:00 -5°C° 0,2 mm 4 m/s 753 mmHg 96%
    Mostrar mais